When you browse on this site, cookies collect data to enhance your experience and personalize the content and advertising you see.
Visit our Privacy Policy to learn more. By continuing to use the site, you agree to this use of cookies and data.
  • In Österreich
  • Länderverzeichnis
  • Für 7 Tage
  • Wassertemperatur
  • Satellitenkarten
  • Wetterkarte
  • News
  • Widgets
  • user-avatar
    Anmelden

    Stündliche Wetter Durres

    Heute, 22 Mai, Mittwoch

    Zeit Temperatur Niederschläge Wind Luftdruck Luftfeuchtigkeit
    00:00 +15°C° 0.1 mm 4 m/S 761 mmHg 74%
    01:00 +17°C° 0 mm 4 m/S 760 mmHg 70%
    02:00 +15°C° 0 mm 4 m/S 760 mmHg 70%
    03:00 +15°C° 0 mm 4 m/S 760 mmHg 70%
    04:00 +14°C° 0 mm 3 m/S 760 mmHg 70%
    05:00 +17°C° 0 mm 3 m/S 760 mmHg 67%
    06:00 +18°C° 0 mm 3 m/S 760 mmHg 64%
    07:00 +20°C° 0 mm 2 m/S 760 mmHg 59%
    08:00 +20°C° 0 mm 2 m/S 760 mmHg 58%
    09:00 +21°C° 0 mm 2 m/S 760 mmHg 57%
    10:00 +23°C° 0 mm 2 m/S 760 mmHg 56%
    11:00 +23°C° 0 mm 2 m/S 760 mmHg 56%
    12:00 +24°C° 0 mm 2 m/S 760 mmHg 56%
    13:00 +24°C° 0 mm 3 m/S 760 mmHg 56%
    14:00 +24°C° 0 mm 2 m/S 760 mmHg 56%
    15:00 +24°C° 0 mm 2 m/S 760 mmHg 56%
    16:00 +23°C° 0 mm 2 m/S 760 mmHg 55%
    17:00 +22°C° 0 mm 1 m/S 760 mmHg 60%
    18:00 +20°C° 0 mm 1 m/S 760 mmHg 64%
    19:00 +19°C° 0 mm 1 m/S 760 mmHg 68%
    20:00 +18°C° 0 mm 1 m/S 760 mmHg 69%
    21:00 +18°C° 0 mm 1 m/S 760 mmHg 69%
    22:00 +15°C° 0 mm 0 m/S 761 mmHg 69%
    23:00 +15°C° 0 mm 0 m/S 761 mmHg 69%

    Morgen, 23 Mai, Donnerstag

    Zeit Temperatur Niederschläge Wind Luftdruck Luftfeuchtigkeit
    00:00 +15°C° 0 mm 1 m/S 761 mmHg 69%
    01:00 +15°C° 0 mm 1 m/S 761 mmHg 69%
    02:00 +15°C° 0 mm 1 m/S 760 mmHg 69%
    03:00 +15°C° 0 mm 1 m/S 760 mmHg 69%
    04:00 +14°C° 0 mm 2 m/S 760 mmHg 69%
    05:00 +16°C° 0 mm 2 m/S 760 mmHg 65%
    06:00 +19°C° 0 mm 1 m/S 760 mmHg 62%
    07:00 +20°C° 0 mm 1 m/S 760 mmHg 59%
    08:00 +21°C° 0 mm 1 m/S 760 mmHg 56%
    09:00 +21°C° 0 mm 2 m/S 760 mmHg 54%
    10:00 +24°C° 0 mm 2 m/S 760 mmHg 52%
    11:00 +24°C° 0 mm 3 m/S 760 mmHg 53%
    12:00 +24°C° 0 mm 3 m/S 759 mmHg 54%
    13:00 +23°C° 0 mm 4 m/S 759 mmHg 55%
    14:00 +23°C° 0 mm 4 m/S 759 mmHg 56%
    15:00 +22°C° 0 mm 4 m/S 759 mmHg 58%
    16:00 +21°C° 0 mm 4 m/S 758 mmHg 59%
    17:00 +20°C° 0 mm 3 m/S 758 mmHg 67%
    18:00 +18°C° 0 mm 3 m/S 758 mmHg 74%
    19:00 +17°C° 0 mm 3 m/S 758 mmHg 81%
    20:00 +16°C° 0 mm 2 m/S 759 mmHg 83%
    21:00 +16°C° 0 mm 2 m/S 759 mmHg 84%
    22:00 +15°C° 0 mm 1 m/S 759 mmHg 86%
    23:00 +15°C° 0 mm 1 m/S 759 mmHg 86%

    übermorgen, 24 Mai, Freitag

    Zeit Temperatur Niederschläge Wind Luftdruck Luftfeuchtigkeit
    00:00 +15°C° 0 mm 1 m/S 759 mmHg 86%
    01:00 +14°C° 0 mm 1 m/S 758 mmHg 86%
    02:00 +14°C° 0 mm 1 m/S 758 mmHg 86%
    03:00 +14°C° 0 mm 1 m/S 758 mmHg 86%
    04:00 +14°C° 0 mm 1 m/S 758 mmHg 86%
    05:00 +15°C° 0 mm 1 m/S 758 mmHg 82%
    06:00 +18°C° 0 mm 1 m/S 758 mmHg 77%
    07:00 +19°C° 0 mm 1 m/S 758 mmHg 73%
    08:00 +20°C° 0 mm 1 m/S 758 mmHg 70%
    09:00 +20°C° 0 mm 2 m/S 758 mmHg 68%
    10:00 +21°C° 0 mm 2 m/S 758 mmHg 66%
    11:00 +22°C° 0 mm 3 m/S 758 mmHg 65%
    12:00 +22°C° 0 mm 3 m/S 758 mmHg 65%
    13:00 +22°C° 0 mm 4 m/S 757 mmHg 65%
    14:00 +22°C° 0 mm 4 m/S 757 mmHg 66%
    15:00 +22°C° 0 mm 4 m/S 757 mmHg 66%
    16:00 +22°C° 0 mm 4 m/S 757 mmHg 67%
    17:00 +20°C° 0 mm 3 m/S 757 mmHg 74%
    18:00 +19°C° 0 mm 2 m/S 757 mmHg 81%
    19:00 +18°C° 0 mm 1 m/S 757 mmHg 88%
    20:00 +18°C° 0 mm 1 m/S 758 mmHg 89%
    21:00 +16°C° 0 mm 1 m/S 758 mmHg 89%
    22:00 +16°C° 0 mm 1 m/S 759 mmHg 90%
    23:00 +16°C° 0 mm 1 m/S 758 mmHg 90%

    25 Mai, Samstag

    Zeit Temperatur Niederschläge Wind Luftdruck Luftfeuchtigkeit
    00:00 +15°C° 0 mm 1 m/S 758 mmHg 89%
    01:00 +15°C° 0 mm 2 m/S 758 mmHg 89%
    02:00 +15°C° 0 mm 2 m/S 758 mmHg 89%
    03:00 +15°C° 0 mm 2 m/S 759 mmHg 88%
    04:00 +15°C° 0 mm 2 m/S 759 mmHg 88%
    05:00 +16°C° 0 mm 2 m/S 759 mmHg 81%
    06:00 +18°C° 0 mm 3 m/S 759 mmHg 75%
    07:00 +19°C° 0 mm 3 m/S 759 mmHg 69%
    08:00 +21°C° 0 mm 2 m/S 759 mmHg 64%
    09:00 +23°C° 0 mm 2 m/S 759 mmHg 60%
    10:00 +24°C° 0 mm 2 m/S 759 mmHg 55%
    11:00 +25°C° 0 mm 2 m/S 759 mmHg 54%
    12:00 +25°C° 0 mm 3 m/S 759 mmHg 54%
    13:00 +26°C° 0 mm 3 m/S 759 mmHg 53%
    14:00 +25°C° 0 mm 3 m/S 759 mmHg 55%
    15:00 +25°C° 0 mm 2 m/S 759 mmHg 57%
    16:00 +24°C° 0 mm 2 m/S 758 mmHg 60%
    17:00 +23°C° 0 mm 2 m/S 759 mmHg 66%
    18:00 +21°C° 0 mm 1 m/S 759 mmHg 73%
    19:00 +19°C° 0 mm 1 m/S 759 mmHg 79%
    20:00 +19°C° 0 mm 1 m/S 759 mmHg 79%
    21:00 +18°C° 0 mm 2 m/S 760 mmHg 79%
    22:00 +18°C° 0 mm 3 m/S 760 mmHg 78%
    23:00 +18°C° 0 mm 3 m/S 760 mmHg 78%

    26 Mai, Sonntag

    Zeit Temperatur Niederschläge Wind Luftdruck Luftfeuchtigkeit
    00:00 +18°C° 0 mm 2 m/S 759 mmHg 78%
    01:00 +17°C° 0 mm 2 m/S 759 mmHg 78%
    02:00 +17°C° 0 mm 2 m/S 759 mmHg 75%
    03:00 +17°C° 0 mm 2 m/S 759 mmHg 73%
    04:00 +17°C° 0 mm 2 m/S 759 mmHg 71%
    05:00 +18°C° 0 mm 2 m/S 759 mmHg 68%
    06:00 +21°C° 0 mm 1 m/S 759 mmHg 65%
    07:00 +22°C° 0 mm 1 m/S 759 mmHg 61%
    08:00 +23°C° 0 mm 1 m/S 759 mmHg 57%
    09:00 +24°C° 0 mm 1 m/S 759 mmHg 53%
    10:00 +25°C° 0 mm 1 m/S 759 mmHg 49%
    11:00 +25°C° 0 mm 1 m/S 759 mmHg 50%
    12:00 +25°C° 0 mm 2 m/S 759 mmHg 50%
    13:00 +26°C° 0 mm 2 m/S 759 mmHg 51%
    14:00 +25°C° 0 mm 2 m/S 758 mmHg 57%
    15:00 +24°C° 0 mm 2 m/S 758 mmHg 63%
    16:00 +23°C° 0 mm 2 m/S 758 mmHg 69%
    17:00 +21°C° 0.6 mm 2 m/S 758 mmHg 73%
    18:00 +20°C° 0.6 mm 2 m/S 758 mmHg 78%
    19:00 +19°C° 0.6 mm 2 m/S 758 mmHg 82%
    20:00 +19°C° 0.2 mm 3 m/S 758 mmHg 82%
    21:00 +19°C° 0.2 mm 4 m/S 758 mmHg 82%
    22:00 +19°C° 0.2 mm 4 m/S 758 mmHg 82%
    23:00 +19°C° 0 mm 4 m/S 758 mmHg 80%

    27 Mai, Montag

    Zeit Temperatur Niederschläge Wind Luftdruck Luftfeuchtigkeit
    00:00 +19°C° 0 mm 4 m/S 757 mmHg 78%
    01:00 +19°C° 0 mm 3 m/S 757 mmHg 76%
    02:00 +19°C° 0 mm 3 m/S 757 mmHg 76%
    03:00 +19°C° 0 mm 2 m/S 757 mmHg 76%
    04:00 +19°C° 0 mm 1 m/S 757 mmHg 75%
    05:00 +20°C° 0.9 mm 1 m/S 757 mmHg 76%
    06:00 +20°C° 0.9 mm 2 m/S 757 mmHg 76%
    07:00 +21°C° 0.9 mm 2 m/S 757 mmHg 76%
    08:00 +22°C° 0.8 mm 4 m/S 756 mmHg 73%
    09:00 +23°C° 0.8 mm 5 m/S 756 mmHg 70%
    10:00 +24°C° 0.8 mm 7 m/S 756 mmHg 66%
    11:00 +26°C° 0.5 mm 6 m/S 755 mmHg 62%
    12:00 +27°C° 0.5 mm 5 m/S 755 mmHg 57%
    13:00 +29°C° 0.5 mm 5 m/S 755 mmHg 52%
    14:00 +28°C° 0.1 mm 4 m/S 754 mmHg 56%
    15:00 +27°C° 0.1 mm 4 m/S 754 mmHg 60%
    16:00 +26°C° 0.1 mm 3 m/S 754 mmHg 64%
    17:00 +25°C° 0 mm 3 m/S 754 mmHg 69%
    18:00 +24°C° 0 mm 2 m/S 753 mmHg 74%
    19:00 +21°C° 0 mm 2 m/S 753 mmHg 79%
    20:00 +20°C° 0 mm 2 m/S 753 mmHg 80%
    21:00 +20°C° 0 mm 2 m/S 753 mmHg 82%
    22:00 +19°C° 0 mm 3 m/S 754 mmHg 83%
    23:00 +19°C° 0.8 mm 4 m/S 753 mmHg 85%
    Mehr zeigen